[[{"header":{"parameterUnit":"m.s-1","parameterCategory":1,"la1":30.2991,"la2":30.254,"lo1":-89.0895,"lo2":-89.0444,"dy":0.0017,"dx":0.0017,"nx":28,"ny":28,"refTime":"2024-06-16T21:00:00:Z","depth":0,"parameterNumber":2,"parameterNumberName":"U-component_of_WINDS"},"data":[0,0,0,0,0,0,0,0,0,0,0,0,0,0,0,0,0,0,0,0,0,0,0,0,0,0,0,0,0,0,0,0,0,0,0,0,0,0,0,0,0,0,0,0,0,0,0,0,0,0,0,0,0,0,0,0,0,0,-6.5661,-6.5662,0,-6.5801,-6.5803,-6.5804,-6.5723,-6.5719,-6.5715,-6.5711,-6.5852,-6.5859,-6.5866,0,0,0,0,0,0,0,0,0,0,0,0,0,-6.5319,-6.5326,-6.566,-6.5662,-6.5664,-6.5801,-6.5803,-6.5805,-6.5724,-6.5719,-6.5714,-6.5709,-6.5849,-6.5858,-6.5867,0,0,0,0,0,0,0,0,0,0,0,0,0,-6.5464,-6.5328,-6.566,-6.564,-6.564,-6.58,-6.5803,-6.5805,-6.5725,-6.5719,-6.5713,-6.5707,-6.5847,-6.5857,-6.5868,-6.6056,0,0,-6.5902,-6.5907,0,0,0,0,0,0,0,0,-6.5456,-6.5477,-6.5641,-6.5642,-6.5642,-6.5738,-6.5734,-6.5889,-6.5726,-6.5692,-6.5711,-6.5704,-6.5819,-6.5832,-6.5871,-6.6062,-6.6068,-6.5903,-6.591,-6.5915,-6.5918,0,0,0,0,0,0,0,-6.5446,-6.547,-6.5716,-6.5644,-6.5644,-6.5623,-6.5637,-6.5763,-6.5787,-6.5695,-6.5689,-6.5707,-6.5818,-6.5861,-6.5874,-6.607,-6.5903,-6.5913,-6.592,-6.5924,-6.6421,-6.6427,0,0,0,0,0,0,-6.5438,-6.5462,-6.5711,-6.572,-6.5532,-6.5634,-6.565,-6.5713,-6.5785,-6.5791,-6.5712,-6.5703,-6.5844,-6.5861,-6.5878,-6.61,-6.5915,-6.5925,-6.5932,-6.6415,-6.6423,-6.643,0,0,0,0,0,0,-6.5431,-6.5461,-6.5706,-6.559,-6.562,-6.5646,-6.5718,-6.5719,-6.5762,-6.5798,-6.5802,-6.5751,-6.584,-6.5863,-6.6012,-6.6104,-6.593,-6.594,-6.6407,-6.6417,-6.6426,-6.6547,0,0,0,0,0,0,-6.5421,-6.5459,-6.5531,-6.5592,-6.5626,-6.5838,-6.5724,-6.5726,-6.5782,-6.5771,-6.5836,-6.5842,-6.5837,-6.5996,-6.6023,-6.6116,-6.5949,-6.6399,-6.6412,-6.6423,-6.6535,-6.656,-6.6581,0,0,0,0,0,-6.541,-6.5559,-6.5535,-6.5565,-6.5717,-6.5844,-6.5863,-6.5856,-6.579,-6.5861,-6.5885,-6.5839,-6.6091,-6.6012,-6.6042,-6.614,-6.6393,-6.6408,-6.6422,-6.6525,-6.6555,-6.6581,0,0,0,0,0,0,-6.5506,-6.5566,-6.554,-6.5714,-6.5775,-6.583,-6.592,-6.5889,-6.5968,-6.5954,-6.5942,-6.5957,-6.6113,-6.6142,-6.6053,-6.6324,-6.6231,-6.6253,-6.6299,-6.6328,-6.6351,-6.6338,-6.5958,0,0,0,0,0,-6.5548,-6.5647,-6.5694,-6.5843,-6.5875,-6.5893,-6.5948,-6.5938,-6.5999,-6.6024,-6.6058,-6.6119,-6.6211,-6.6272,-6.6359,-6.6541,-6.6552,-6.6623,-6.6646,-6.6665,-6.6682,-6.6778,-6.6809,-6.6478,-6.6478,-6.6477,0,0,-6.5634,-6.568,-6.5743,-6.5864,-6.5909,-6.601,-6.5914,-6.6026,-6.61,-6.604,-6.6182,-6.6211,-6.6278,-6.6443,-6.6518,-6.6472,-6.6777,-6.6683,-6.6698,-6.6705,-6.6796,-6.6827,-6.6855,-6.6488,-6.6486,-6.6484,0,0,-6.5843,-6.5889,-6.6016,-6.6065,-6.6135,-6.6147,-6.6178,-6.6239,-6.6255,-6.6399,-6.6355,-6.6444,-6.6604,-6.6653,-6.6698,-6.6929,-6.6888,-6.6958,-6.7076,-6.717,-6.7196,-6.7219,-6.7298,-6.7327,-6.6976,-6.6976,-6.6976,0,-6.594,-6.6092,-6.6086,-6.6201,-6.6254,-6.6207,-6.6335,-6.6382,-6.6478,-6.6515,-6.6464,-6.6663,-6.6705,-6.6881,-6.6937,-6.6977,-6.701,-6.6947,-6.7193,-6.7216,-6.7238,-6.7313,-6.7343,-6.6984,-6.6983,-6.6982,-6.6981,0,-6.6208,-6.6314,-6.6409,-6.6503,-6.6568,-6.669,-6.67,-6.6767,-6.6752,-6.6769,-6.6915,-6.6965,-6.706,-6.7102,-6.7089,-6.7276,-6.7245,-6.7195,-6.7099,-6.7277,-6.7347,-6.7376,-6.6994,-6.6992,-6.6989,-6.6988,0,0,-6.6477,-6.6568,-6.6602,-6.6643,-6.6719,-6.6801,-6.6921,-6.7015,-6.7071,-6.714,-6.7238,-6.7376,-6.7329,-6.7381,-6.7373,-6.7457,-6.7632,-6.7395,-6.7396,-6.7434,-6.7839,-6.7874,-6.7907,-6.7609,-6.7614,-6.7619,-6.7832,0,-6.6687,-6.6896,-6.6894,-6.7086,-6.7183,-6.7141,-6.7245,-6.7302,-6.7322,-6.7406,-6.7428,-6.7524,-6.7457,-6.7488,-6.7569,-6.7594,-6.7713,-6.7579,-6.7697,-6.7701,-6.7677,-6.7944,-6.7981,-6.818,-6.786,-6.7864,-6.7868,0,-6.6959,-6.7037,-6.7239,-6.7301,-6.7341,-6.7435,-6.7521,-6.7604,-6.7668,-6.7676,-6.7736,-6.7716,-6.7836,-6.7742,-6.7906,-6.7816,-6.7865,-6.7884,-6.7892,-6.7899,-6.7792,-6.7954,-6.8244,-6.8272,-6.7912,-6.7908,-6.7905,0,-6.713,-6.7287,-6.7427,-6.7465,-6.7541,-6.7607,-6.7642,-6.77,-6.7757,-6.7834,-6.787,-6.796,-6.8008,-6.8077,-6.8081,-6.8013,-6.8246,-6.8153,-6.8254,-6.8254,-6.8301,-6.8297,-6.8598,-6.8341,-6.834,-6.834,-6.8339,0,-6.7363,-6.7487,-6.7505,-6.7591,-6.7729,-6.7727,-6.7863,-6.7892,-6.7945,-6.8035,-6.8006,-6.8091,-6.8093,-6.818,-6.8185,-6.8319,-6.8342,-6.835,-6.8349,-6.835,-6.8349,-6.8379,-6.8363,-6.8348,-6.8346,-6.8344,-6.8343,0,-6.7575,-6.7592,-6.7742,-6.7803,-6.7821,-6.792,-6.7971,-6.8053,-6.8071,-6.8186,-6.8212,-6.8241,-6.8342,-6.8354,-6.8472,-6.8475,-6.8635,-6.8622,-6.8613,-6.861,-6.8709,-6.8698,-6.9036,-6.9079,-6.8797,-6.88,-6.8802,0,-6.7719,-6.7814,-6.7886,-6.7944,-6.7983,-6.8078,-6.8136,-6.8139,-6.8201,-6.8282,-6.8354,-6.8452,-6.853,-6.8694,-6.8724,-6.8814,-6.88,-6.8912,-6.8812,-6.8811,-6.8797,-6.8789,-6.8798,-6.8929,-6.8933,-6.8935,-6.8937,0,-6.7974,-6.7978,-6.8063,-6.8153,-6.8224,-6.8294,-6.836,-6.841,-6.8421,-6.8492,-6.8595,-6.8656,-6.8778,-6.8875,-6.8964,-6.8998,-6.8969,-6.8969,-6.8997,-6.8997,-6.8986,-6.899,-6.8661,-6.896,-6.8958,-6.8956,-6.8955,-6.8954,-6.8154,-6.8235,-6.8298,-6.8395,-6.8445,-6.8508,-6.8587,-6.8616,-6.8703,-6.8801,-6.8798,-6.8912,-6.8974,-6.9091,-6.9132,-6.922,-6.9183,-6.9224,-6.9233,-6.9242,-6.925,-6.8977,-6.9237,-6.9237,-6.9236,-6.9236,-6.9235,0,-6.8403,-6.8442,-6.8531,-6.8624,-6.8701,-6.867,-6.8741,-6.8806,-6.8907,-6.8968,-6.9046,-6.9165,-6.9259,-6.9299,-6.9391,-6.9454,-6.9443,-6.9478,-6.9471,-6.9479,-6.928,-6.9245,-6.9485,-6.9485,-6.9485,-6.9485,-6.9485,-6.9485,-6.8541,-6.8677,-6.8689,-6.8849,-6.8888,-6.8999,-6.9042,-6.9099,-6.9148,-6.9282,-6.9361,-6.9386,-6.9439,-6.9535,-6.9621,-6.963,-6.9663,-6.9704,-6.9707,-6.9519,-6.9493,-6.9469,-6.9436,-6.9712,-6.9712,-6.9897,-6.9899,-6.99]},{"header":{"parameterUnit":"m.s-1","parameterCategory":1,"la1":30.2991,"la2":30.254,"lo1":-89.0895,"lo2":-89.0444,"dy":0.0017,"dx":0.0017,"nx":28,"ny":28,"refTime":"2024-06-16T21:00:00:Z","depth":0,"parameterNumber":3,"parameterNumberName":"V-component_of_WINDS"},"data":[0,0,0,0,0,0,0,0,0,0,0,0,0,0,0,0,0,0,0,0,0,0,0,0,0,0,0,0,0,0,0,0,0,0,0,0,0,0,0,0,0,0,0,0,0,0,0,0,0,0,0,0,0,0,0,0,0,0,2.301,2.301,0,2.2984,2.2984,2.2984,2.2898,2.2896,2.2894,2.2892,2.2867,2.2868,2.2869,0,0,0,0,0,0,0,0,0,0,0,0,0,2.2989,2.299,2.301,2.301,2.301,2.2984,2.2984,2.2983,2.2898,2.2896,2.2893,2.2891,2.2866,2.2868,2.2869,0,0,0,0,0,0,0,0,0,0,0,0,0,2.2984,2.299,2.301,2.2964,2.2959,2.2984,2.2984,2.2983,2.2899,2.2896,2.2893,2.289,2.2866,2.2868,2.2869,2.2937,0,0,2.2874,2.2875,0,0,0,0,0,0,0,0,2.2984,2.2985,2.2971,2.2967,2.2962,2.2941,2.2967,2.2968,2.2899,2.2922,2.2892,2.2889,2.2894,2.2893,2.2895,2.2936,2.2935,2.2875,2.2876,2.2876,2.2877,0,0,0,0,0,0,0,2.2985,2.2986,2.3,2.2971,2.2966,2.2945,2.2941,2.2967,2.2924,2.292,2.2913,2.2911,2.2891,2.2893,2.2893,2.2935,2.2875,2.2876,2.2877,2.2878,2.3031,2.3034,0,0,0,0,0,0,2.2992,2.2986,2.3001,2.2999,2.2966,2.2948,2.2944,2.2951,2.2924,2.2917,2.2914,2.2907,2.2892,2.2892,2.2892,2.2969,2.2876,2.2878,2.2879,2.3028,2.3032,2.3035,0,0,0,0,0,0,2.2991,2.2994,2.3002,2.2991,2.2991,2.2951,2.296,2.2952,2.2954,2.2919,2.2912,2.2924,2.289,2.289,2.2927,2.2967,2.2879,2.288,2.3025,2.3029,2.3034,2.3125,0,0,0,0,0,0,2.2991,2.2994,2.3019,2.2992,2.2991,2.3036,2.2963,2.2953,2.2957,2.2948,2.2927,2.292,2.2887,2.2925,2.2928,2.2968,2.2881,2.3021,2.3027,2.3032,2.3118,2.3132,2.3144,0,0,0,0,0,2.2991,2.3046,2.302,2.3023,2.3021,2.3039,2.3038,2.2999,2.2961,2.2985,2.2963,2.2921,2.2963,2.2929,2.2933,2.2973,2.3018,2.3025,2.3032,2.3112,2.3129,2.3144,0,0,0,0,0,0,2.3078,2.3041,2.3013,2.3061,2.3054,2.3024,2.3054,2.3018,2.3022,2.3013,2.2965,2.2961,2.3005,2.2993,2.2956,2.3038,2.2983,2.2991,2.3043,2.3059,2.3072,2.3073,2.2883,0,0,0,0,0,2.3103,2.3119,2.3087,2.3132,2.313,2.3093,2.3099,2.307,2.306,2.3057,2.3037,2.3031,2.3042,2.3051,2.3059,2.3117,2.3111,2.3147,2.316,2.3171,2.3178,2.3207,2.3222,2.3058,2.3058,2.3058,0,0,2.3154,2.3136,2.3149,2.3149,2.314,2.3159,2.3091,2.3113,2.3127,2.306,2.3093,2.308,2.3069,2.3116,2.3136,2.3108,2.3222,2.318,2.3189,2.3189,2.3216,2.3231,2.3245,2.3063,2.3062,2.3061,0,0,2.3256,2.3245,2.3281,2.3274,2.3261,2.3236,2.3246,2.3222,2.321,2.3243,2.3193,2.321,2.3231,2.3225,2.3225,2.3328,2.3289,2.3333,2.3399,2.3429,2.3442,2.3453,2.3488,2.3502,2.334,2.334,2.334,0,2.3321,2.3347,2.3305,2.333,2.3332,2.3273,2.331,2.3305,2.3297,2.3299,2.3268,2.3294,2.3282,2.3327,2.3353,2.3355,2.3364,2.3333,2.3443,2.3454,2.3464,2.3497,2.3511,2.3345,2.3345,2.3344,2.3344,0,2.3427,2.3446,2.3477,2.3469,2.3475,2.3507,2.347,2.3481,2.3452,2.3431,2.3466,2.3451,2.3455,2.3465,2.3437,2.3506,2.3489,2.3452,2.3395,2.3485,2.3516,2.3528,2.3353,2.3351,2.3349,2.3348,0,0,2.358,2.3551,2.3563,2.3559,2.3542,2.3555,2.3585,2.3589,2.3599,2.3597,2.362,2.364,2.3605,2.3606,2.3577,2.3603,2.3685,2.3562,2.3561,2.3584,2.376,2.3787,2.3802,2.366,2.3663,2.3664,2.376,0,2.3676,2.3723,2.3687,2.3741,2.3758,2.3704,2.373,2.3723,2.3705,2.3718,2.3698,2.3713,2.3667,2.3666,2.369,2.367,2.3719,2.3663,2.3681,2.3682,2.3682,2.3818,2.3846,2.3937,2.3772,2.3774,2.3776,0,2.3793,2.3795,2.385,2.383,2.3836,2.3859,2.3861,2.3874,2.3865,2.3851,2.3852,2.3817,2.3845,2.3793,2.3831,2.3793,2.3799,2.3791,2.3794,2.3792,2.3732,2.3818,2.3965,2.3978,2.3794,2.3793,2.3791,0,2.3897,2.3914,2.3949,2.3948,2.3926,2.3944,2.3935,2.3924,2.3929,2.3932,2.3934,2.3941,2.3943,2.3949,2.3917,2.3882,2.396,2.3904,2.3948,2.3949,2.3964,2.3963,2.4113,2.3972,2.3972,2.3972,2.3972,0,2.4006,2.4042,2.3995,2.4017,2.4056,2.4016,2.4056,2.4042,2.4033,2.4051,2.4007,2.4025,2.3982,2.3997,2.3973,2.4008,2.401,2.3999,2.3991,2.4001,2.4003,2.4002,2.3995,2.3976,2.3975,2.3974,2.3973,0,2.4127,2.4098,2.4133,2.411,2.4105,2.4135,2.4115,2.4134,2.4115,2.4139,2.4142,2.4111,2.4126,2.4095,2.4106,2.409,2.4139,2.4123,2.4142,2.4136,2.4181,2.4176,2.4333,2.4352,2.4202,2.4204,2.4205,0,2.4197,2.4224,2.4204,2.4213,2.4207,2.4222,2.4228,2.419,2.4198,2.4191,2.4212,2.4223,2.4229,2.4256,2.4235,2.4243,2.4225,2.428,2.4226,2.4235,2.4224,2.4222,2.4224,2.429,2.4292,2.4293,2.4295,0,2.4325,2.4309,2.4318,2.4323,2.4331,2.4333,2.4332,2.4342,2.4303,2.4314,2.4328,2.4333,2.4345,2.4356,2.436,2.4352,2.4317,2.4312,2.4322,2.4332,2.4341,2.4335,2.417,2.4308,2.4307,2.4306,2.4305,2.4304,2.4421,2.4442,2.4431,2.4443,2.4439,2.4439,2.4456,2.4439,2.4451,2.4456,2.4435,2.4454,2.4446,2.4448,2.4444,2.4459,2.4435,2.445,2.4453,2.4457,2.4464,2.4341,2.446,2.446,2.4459,2.4459,2.4459,0,2.4544,2.4536,2.4547,2.4547,2.4557,2.4524,2.4522,2.4532,2.455,2.4546,2.4553,2.4571,2.4582,2.4563,2.4571,2.4587,2.4572,2.4591,2.4588,2.4587,2.4486,2.4475,2.4603,2.4603,2.4603,2.4603,2.4603,2.4603,2.461,2.4643,2.4627,2.4658,2.4649,2.4668,2.4669,2.467,2.4666,2.4687,2.4696,2.4684,2.4674,2.4681,2.4691,2.4685,2.4689,2.4714,2.4703,2.4608,2.4594,2.458,2.457,2.4716,2.4716,2.4802,2.4803,2.4803]}]]